ジョンソン彗星

C/2015 V2 ( Johnson )

English version
Home page
Updated on March 25, 2017

---------------------------------------------------------------------

・ プロフィール

発見日 2015年11月3日
発見光度 17.1等
発見者 J. A. Johnson (Catalina Sky Survey)

・ 写真集

・ 軌道要素

Epoch 2017 June 16.0 TT = JDT 2457920.5
T 2017 June 12.34201 TT                                 MPCW
q   1.6369848            (2000.0)            P               Q
z  -0.0010808      Peri.  164.89698     -0.49022323     +0.49433567
 +/-0.0000004      Node    69.84942     -0.85775336     -0.12741191
e   1.0017693      Incl.   49.87654     -0.15472671     -0.85988281
From 2514 observations 2015 Nov. 3-2017 Mar. 8, mean residual 0".4.

・ 星図

・ 光度変化

        m1 = 5.0 + 5 logΔ + 10.0 log r

---------------------------------------------------------------------

軌道要素はM.P.E.C. 2017-E59に掲載されたものです。
星図はステラナビゲータ Ver.8 (アストロアーツ) で作成したものです。
光度グラフはComet for Windowsで作成したものです。

---------------------------------------------------------------------

Copyright(C) Seiichi Yoshida (comet@aerith.net). All rights reserved.